Roatan, Honduras

11:40 PM CST on March 24, 2017 (GMT -0600)
Roatan

Weather History for 78703 - October, 2013

Change the Weather History Date:

Wednesday, October 23, 2013

  Actual Average Record
Temperature  
Mean Temperature 84 °F -  
Max Temperature 90 °F 83 °F - ()
Min Temperature 79 °F 74 °F - ()
Cooling Degree Days 20    
Growing Degree Days 34 (Base 50)    
Moisture  
Dew Point 75 °F    
Average Humidity 67    
Maximum Humidity 79    
Minimum Humidity 53    
Precipitation  
Precipitation 0.00 in - - ()
Sea Level Pressure  
Sea Level Pressure 29.82 in    
Wind  
Wind Speed 12 mph ()    
Max Wind Speed 18 mph    
Max Gust Speed -    
Visibility 6.8 miles    
Events      
T = Trace of Precipitation, MM = Missing Value Source: Averaged Metar Reports

Daily Weather History Graph

Daily Weather History Graph

Search for Another Location

Airport or City:

Trip Planner

Search our weather history database for the weather conditions in past years. The results will help you decide how hot, cold, wet, or windy it might be!

Date:

Astronomy

Oct. 23, 2013 Rise Set
Actual Time 5:40 AM CST 5:19 PM CST
Civil Twilight 5:18 AM CST 5:41 PM CST
Nautical Twilight 4:53 AM CST 6:07 PM CST
Astronomical Twilight 4:28 AM CST 6:32 PM CST
Moon 9:11 PM CST (10/23) 9:35 AM CST (10/23)
Length of Visible Light 12h 23m
Length of Day
11h 39m
Waning Gibbous, 79% of the Moon is Illuminated
Oct 23
Waning Gibbous
Oct 26
Last Quarter
Nov 3
New
Nov 9
First Quarter
Nov 17
Full

Hourly Weather History & Observations

Time (CST) Temp. Heat Index Dew Point Humidity Pressure Visibility Wind Dir Wind Speed Gust Speed Precip Events Conditions
6:00 AM 83 °F - 75 °F 70% 29.83 in 9 mi East 12.7 mph - -   Haze
6:00 AM 82.4 °F 89.5 °F 75.2 °F 79% 29.83 in 6.2 mi East 12.7 mph - N/A   Scattered Clouds
7:00 AM 84.2 °F 90.9 °F 73.4 °F 70% 29.83 in 6.2 mi East 12.7 mph - N/A   Partly Cloudy
8:00 AM 86.0 °F 93.4 °F 73.4 °F 66% 29.86 in 6.2 mi East 11.5 mph - N/A   Partly Cloudy
9:00 AM 87 °F - 74 °F 59% 29.88 in 9 mi East 11.5 mph - -   Haze
9:00 AM 86.0 °F 95.1 °F 75.2 °F 70% 29.86 in 6.2 mi East 11.5 mph - N/A   Partly Cloudy
10:00 AM 87.8 °F 95.6 °F 73.4 °F 62% 29.86 in 6.2 mi East 9.2 mph - N/A   Partly Cloudy
11:00 AM 87.8 °F 97.6 °F 75.2 °F 66% 29.86 in 6.2 mi East 12.7 mph - N/A   Partly Cloudy
12:00 PM 87.8 °F 95.6 °F 73.4 °F 62% 29.83 in 6.2 mi East 12.7 mph - N/A   Partly Cloudy
1:00 PM 89.6 °F 98.2 °F 73.4 °F 59% 29.80 in 6.2 mi East 10.4 mph - N/A   Partly Cloudy
2:00 PM 89.6 °F 98.2 °F 73.4 °F 59% 29.77 in 6.2 mi East 13.8 mph - N/A   Partly Cloudy
3:00 PM 89 °F - 74 °F 53% 29.78 in 9 mi East 15.0 mph - -   Haze
3:00 PM 89.6 °F 98.2 °F 73.4 °F 59% 29.77 in 6.2 mi East 15.0 mph - N/A   Partly Cloudy
4:00 PM 87.8 °F 97.6 °F 75.2 °F 66% 29.77 in 6.2 mi East 16.1 mph - N/A   Partly Cloudy
5:00 PM 86.0 °F 95.1 °F 75.2 °F 70% 29.80 in 6.2 mi East 18.4 mph - N/A   Partly Cloudy
6:00 PM 84 °F - 76 °F 71% 29.82 in 9 mi East 17.3 mph - -   Haze
6:00 PM 84.2 °F 92.3 °F 75.2 °F 74% 29.80 in 6.2 mi East 17.3 mph - N/A   Partly Cloudy
7:00 PM 84.2 °F 92.3 °F 75.2 °F 74% 29.83 in 6.2 mi East 16.1 mph - N/A   Scattered Clouds
8:00 PM 84.2 °F 94.1 °F 77.0 °F 79% 29.86 in 6.2 mi East 15.0 mph - N/A   Partly Cloudy